{"data":{"norad_id":59239,"intl_designator":"2024-049J","name":"STARLINK-31303","alt_names":[],"object_type":"PAYLOAD","status":"ACTIVE","operator":null,"country":"US","launch_date":"2024-03-16","launch_site_code":"AFETR","launch_vehicle":null,"mission":null,"orbit_class":"UNKNOWN","rcs_meters":null,"size_class":null,"mass_kg":null,"dimensions":null,"purposes":["comms"],"wikipedia_slug":null,"has_3d_model":false,"image_url":null,"decayed_at":null,"tle_current":{"epoch":"2026-05-24T22:46:40.195776Z","epoch_age_seconds":75337,"freshness":"FRESH","line1":"1 59239U 24049J   26144.94907634  .00001052  00000+0  47723-4 0  9990","line2":"2 59239  43.0021  62.0142 0000981 273.4397  86.6342 15.27587163124199","mean_motion":15.27587163,"eccentricity":9.81e-5,"inclination_deg":43.0021,"raan_deg":62.0142,"arg_perigee_deg":273.4397,"mean_anomaly_deg":86.6342,"bstar":4.7723e-5,"rev_number":12419,"period_min":94.266306687994,"perigee_km":482.35456727267,"apogee_km":483.70072777651,"semimajor_km":6861.1646475246,"source":"CELESTRAK","updated_at":"2026-05-25T13:38:18.870668Z"}}}